Location: Le Domaine
(47.0333°N, 76.5361°W)
Time: 10:01:11
(UTC-05:00)

Vanguard 2 Rocket - Visible Passes

Search period start: 20 November 2019 00:00
Search period end: 30 November 2019 00:00
Orbit: 554 x 3326 km, 32.9° (Epoch: 20 November)

Date Brightness Start Highest point End Pass type
(mag) Time Alt. Az. Time Alt. Az. Time Alt. Az.
20 Nov 9.4 03:10:08 14° SE 03:10:08 14° SE 03:11:34 10° SE visible
20 Nov 9.0 05:15:57 13° SW 05:19:21 18° SSW 05:25:11 10° SSE visible
21 Nov 8.9 04:19:55 18° S 04:19:55 18° S 04:24:55 10° SSE visible
22 Nov 9.4 03:23:54 12° SSE 03:23:54 12° SSE 03:24:39 10° SE visible
22 Nov 9.2 05:31:11 10° SSW 05:33:18 11° SSW 05:35:41 10° S visible
23 Nov 9.1 04:33:41 12° SSW 04:33:47 12° SSW 04:36:31 10° S visible
